GFSFLT2_sfc_dewp_102.txt.gz
Dewpoint
26 25 27 30 32 33 33 33 31 35 38 47 51 53 54 53 55 59 60 59 60 61 64 64 65 67 67 69 70 71 70 72
23 25 25 24 25 27 31 30 30 33 36 37 51 52 54 53 56 59 61 60 60 61 63 66 64 66 67 68 70 70 70 70
28 24 21 23 22 22 21 25 24 27 31 49 50 54 54 54 56 58 61 61 63 64 64 65 66 67 68 68 69 69 69 69
23 27 28 28 22 23 20 26 26 27 35 53 56 57 57 57 57 59 60 62 64 66 67 68 69 69 68 71 68 69 69 70
25 26 29 26 27 27 23 22 27 23 24 52 56 59 60 60 61 62 62 62 63 65 66 67 67 68 69 70 71 71 70 69
21 26 26 27 29 30 26 22 23 23 26 49 53 57 60 61 62 63 64 64 64 65 66 67 67 68 69 69 71 70 71 71
27 27 26 28 27 27 29 27 24 23 26 31 49 56 59 61 62 62 63 63 64 65 66 68 68 68 69 69 69 69 70 70
29 30 30 28 28 28 31 29 26 27 29 44 51 57 59 61 61 62 63 63 64 65 66 67 68 69 69 70 69 70 68 68
26 30 30 29 29 28 32 37 36 28 36 50 54 56 59 60 61 62 62 63 64 65 66 67 68 69 70 69 70 69 68 68
27 32 27 31 37 37 36 39 46 46 49 52 55 57 59 60 60 61 62 63 62 63 63 64 67 69 69 69 69 69 68 68
32 27 29 31 36 36 37 39 49 51 52 53 57 57 57 58 59 60 61 61 60 61 60 59 59 62 62 62 63 64 64 66
31 29 30 37 36 38 37 41 49 51 53 55 55 53 54 57 58 59 59 58 57 57 57 57 56 58 57 59 59 59 59 59
29 28 31 41 39 39 36 40 49 53 54 54 55 55 57 57 58 57 56 56 55 54 55 55 56 57 55 55 55 57 58 59
31 30 30 45 41 40 48 46 49 53 54 53 55 56 57 57 55 54 53 52 52 51 52 53 53 54 55 54 56 58 57 57
39 42 46 47 48 50 50 48 51 53 53 54 54 54 56 53 52 52 52 51 51 50 50 53 56 56 53 53 54 55 55 56
42 42 42 44 46 51 53 51 52 53 52 52 52 54 55 53 52 52 52 52 50 51 50 50 52 53 54 53 52 53 54 54
42 42 42 43 46 49 52 54 53 53 53 52 52 52 52 52 52 53 53 53 52 51 50 50 51 51 49 50 50 50 50 49
43 44 46 45 45 47 49 51 52 53 53 53 53 52 52 52 52 53 51 52 52 52 50 50 48 48 49 49 50 49 47 45
45 46 46 45 45 43 46 49 51 52 53 54 54 54 53 53 53 54 53 52 52 50 50 50 48 48 48 48 48 49 47 47

GFSFLT2_sfc_dewp_105.txt.gz
Dewpoint
24 26 30 30 33 35 35 43 39 40 42 50 49 50 52 54 56 56 58 55 60 57 61 68 63 66 66 68 70 70 70 71
22 23 22 26 28 27 30 32 33 33 39 43 48 49 50 51 54 58 58 59 59 59 60 60 62 63 67 67 68 69 69 69
23 22 21 20 22 25 25 25 24 26 34 49 51 50 52 52 53 56 59 60 65 64 66 61 63 63 65 66 69 68 68 68
25 23 19 20 20 21 19 27 23 23 42 49 49 50 52 52 54 58 61 61 63 66 66 67 67 67 67 70 68 68 69 70
24 23 24 22 24 20 17 19 25 20 34 50 53 55 55 54 56 59 62 61 61 62 67 68 69 70 69 70 70 71 69 69
25 30 30 26 22 23 22 20 20 20 30 47 49 54 57 58 58 59 61 62 63 65 65 68 69 70 71 72 72 72 71 72
29 29 28 27 23 21 26 26 25 23 23 28 47 52 58 60 62 63 63 62 63 66 68 69 68 69 68 68 70 70 71 71
34 25 26 25 27 29 25 25 24 24 24 35 51 55 58 61 61 62 63 64 65 66 67 68 68 68 69 68 69 70 70 70
28 23 25 23 25 26 26 26 26 25 28 46 49 53 57 60 61 62 63 64 65 65 66 67 68 69 68 69 69 70 69 69
28 28 27 28 32 32 34 32 36 40 38 49 50 56 58 59 61 62 63 65 66 66 67 68 70 71 71 71 70 70 70 69
30 23 35 32 34 34 34 40 51 47 45 48 56 57 58 59 60 62 63 63 62 63 64 63 65 69 70 70 70 69 69 69
34 32 27 42 43 37 36 32 45 50 52 53 55 50 53 59 60 61 61 60 59 59 59 58 58 62 62 62 64 64 65 67
27 32 35 42 40 38 34 41 46 52 54 55 54 56 59 59 59 59 58 57 56 55 56 57 57 58 57 58 58 61 61 61
31 37 38 43 40 42 48 46 47 52 54 56 56 58 58 56 56 55 53 53 53 53 54 55 56 56 55 56 58 60 61 62
42 45 45 47 47 49 48 46 49 53 54 55 56 56 55 54 53 52 52 52 52 52 54 56 56 55 54 56 58 59 59 61
38 41 43 44 47 50 50 48 50 53 54 55 54 53 53 53 52 52 53 52 52 52 50 51 54 55 55 56 58 56 56 58
41 41 42 43 45 49 51 53 52 54 54 54 52 52 52 53 54 54 53 53 52 51 51 51 51 51 53 54 56 56 57 56
41 46 46 45 45 46 48 51 53 54 54 54 53 53 53 52 54 53 54 54 52 52 50 50 50 51 52 51 53 54 54 54
44 45 45 45 44 43 45 47 51 54 54 52 52 53 53 53 54 54 53 53 54 53 52 52 51 50 49 50 53 52 51 51

GFSFLT2_sfc_dewp_111.txt.gz
Dewpoint
21 21 27 32 38 36 42 43 36 47 50 55 54 52 53 52 51 53 59 59 62 61 66 65 63 67 70 70 69 71 71 71
18 23 24 33 32 28 34 38 38 42 41 48 51 53 53 52 50 53 56 57 60 61 65 66 64 68 71 71 70 70 71 71
27 22 22 23 25 27 28 30 35 41 43 53 48 54 56 58 54 54 55 56 57 60 64 66 66 69 70 71 71 70 71 70
29 29 22 21 20 25 26 25 28 34 40 48 51 55 57 56 60 59 56 55 56 62 65 67 68 67 68 68 70 70 70 70
27 29 32 22 21 27 20 18 20 24 38 51 52 48 57 54 59 61 60 55 63 66 65 67 67 67 67 68 70 71 69 71
30 34 36 32 31 28 27 19 19 21 47 48 48 51 53 47 52 59 59 55 64 66 66 67 66 65 65 66 68 70 71 70
30 31 31 30 30 29 29 28 28 33 46 53 54 55 55 55 57 58 58 59 63 65 65 65 65 66 67 67 67 70 69 70
29 29 29 29 31 30 29 30 25 44 49 52 56 61 60 60 64 62 62 62 63 65 67 63 64 63 65 64 66 71 69 69
32 30 29 27 34 33 34 42 47 50 55 57 54 55 58 57 62 63 64 64 66 66 68 68 66 64 68 68 70 70 69 69
32 32 28 37 38 37 44 46 47 51 57 54 55 55 59 63 63 61 61 60 62 63 64 65 70 69 70 69 69 69 68 69
32 29 31 38 39 38 40 46 48 51 49 55 57 58 59 60 59 59 59 59 60 61 62 63 64 67 69 69 69 69 68 69
37 34 31 42 42 45 38 44 52 52 55 56 55 52 58 59 58 57 56 56 57 59 59 59 61 64 64 66 67 68 68 68
39 38 42 46 46 46 34 44 54 52 56 56 54 55 56 56 55 55 55 55 56 57 56 58 59 60 60 61 61 63 65 68
38 37 36 48 47 45 49 52 55 56 57 56 55 54 53 53 53 53 53 54 54 54 55 56 58 59 58 58 60 62 62 62
42 43 49 52 52 51 52 54 56 54 53 52 52 52 52 52 52 52 53 53 53 53 53 54 55 55 56 57 59 60 60 60
45 46 49 51 55 55 54 55 55 54 53 52 52 52 51 51 51 51 52 52 52 51 50 51 52 53 55 56 58 57 58 59
45 46 47 50 51 52 55 55 54 53 53 52 51 51 51 50 52 53 52 51 49 50 50 51 51 51 53 54 55 56 56 56
43 47 48 47 48 53 53 54 54 53 52 53 51 51 52 51 52 52 52 51 51 50 49 49 50 50 50 51 54 53 53 53
47 50 48 47 46 53 53 54 53 53 52 52 52 52 51 51 51 53 52 52 50 49 49 51 49 48 50 52 51 47 47 46

GFSFLT2_sfc_dewp_114.txt.gz
Dewpoint
34 40 50 47 43 44 41 42 40 46 47 53 53 52 53 53 53 53 56 60 61 62 63 63 63 67 67 68 68 69 68 70
31 28 46 41 41 34 36 37 35 44 43 47 51 53 52 51 52 51 58 61 61 62 64 63 64 67 70 69 69 69 69 70
27 22 21 22 25 25 30 38 34 39 41 51 50 53 54 54 52 52 58 60 61 62 65 65 65 68 70 70 69 70 70 70
26 28 31 22 21 24 23 23 28 37 32 49 52 53 56 58 58 55 58 59 59 63 65 66 68 68 70 70 69 69 71 70
28 29 33 33 32 34 24 21 16 18 21 51 50 50 55 55 58 61 58 57 57 63 65 66 67 68 70 70 70 70 70 70
27 28 34 32 32 30 25 20 19 19 30 48 55 57 59 61 51 57 59 55 56 62 65 66 67 68 68 68 68 68 70 70
32 29 32 32 31 32 29 34 26 32 48 52 58 56 55 59 58 60 61 60 62 62 64 66 66 66 66 68 68 68 68 69
30 29 29 30 37 46 46 46 49 51 53 57 58 57 57 60 60 58 60 61 64 65 66 64 65 64 65 65 67 69 68 69
29 32 29 34 40 46 48 52 52 49 53 55 54 58 60 60 60 59 60 61 61 65 65 65 65 65 65 65 66 68 68 69
31 30 27 38 42 47 49 50 52 55 51 53 57 59 59 60 58 60 61 60 60 61 62 63 66 65 67 66 66 68 68 68
31 31 35 41 43 42 43 50 53 53 55 53 56 57 56 58 57 57 58 59 60 61 61 62 63 66 68 68 68 68 68 68
38 36 29 42 44 47 45 44 52 54 54 54 55 50 54 55 55 55 56 56 57 59 60 61 60 65 65 66 67 68 68 68
39 38 41 47 46 48 36 42 53 55 54 52 53 55 55 54 54 54 54 55 56 56 56 58 60 62 61 62 62 64 68 68
39 37 33 47 46 43 47 50 55 56 55 54 54 53 52 52 53 53 53 53 54 55 55 56 58 59 58 58 60 62 64 64
39 40 45 49 48 50 51 54 53 54 53 53 51 51 50 52 52 52 52 52 53 52 53 54 56 57 57 58 60 60 59 57
42 45 46 50 49 55 54 55 54 53 52 51 51 51 51 51 51 51 51 51 52 51 50 50 52 53 55 56 58 59 58 55
42 45 47 49 52 55 55 54 53 52 52 51 51 51 50 51 52 51 50 50 50 49 50 50 50 51 54 54 54 56 57 55
40 45 44 45 51 55 54 53 52 52 51 51 50 49 51 51 52 51 50 50 48 47 47 48 48 49 49 52 53 53 53 55
45 46 48 49 55 55 54 53 53 52 52 51 50 50 49 48 48 52 52 48 49 49 49 49 47 48 49 52 47 45 44 46

GFSFLT2_sfc_dewp_117.txt.gz
Dewpoint
48 50 48 47 43 43 41 41 41 47 48 49 52 52 52 51 51 55 57 59 59 60 62 62 64 65 65 65 66 68 67 69
33 49 50 45 45 40 40 36 35 42 43 44 51 51 52 53 51 54 56 60 60 60 62 63 63 66 67 67 66 68 68 68
28 28 43 29 29 30 35 37 33 36 39 49 50 53 52 53 53 54 56 60 61 61 62 63 65 66 67 68 67 67 68 68
27 29 32 29 24 24 24 22 30 32 25 50 55 56 57 57 58 55 56 58 60 61 64 64 65 65 67 68 68 68 68 68
30 28 31 33 33 34 23 21 18 17 22 57 58 60 61 57 57 59 60 61 59 61 64 65 65 66 67 69 69 69 69 70
33 27 31 32 32 32 27 28 27 21 44 54 53 57 56 59 60 60 60 59 60 62 64 65 67 68 68 69 70 70 70 70
33 36 30 32 42 45 41 41 31 44 51 54 57 56 58 57 59 60 61 63 64 61 64 66 67 68 69 70 70 70 70 70
28 32 34 43 45 46 48 50 51 52 51 54 58 59 59 59 58 57 60 62 64 65 65 66 66 67 68 68 68 69 69 69
28 32 33 33 43 47 49 53 51 45 50 54 56 56 57 58 59 59 59 61 62 63 65 65 65 65 66 66 68 68 68 69
29 30 28 40 47 50 50 51 53 51 53 55 56 56 56 57 56 57 56 59 60 61 64 64 65 66 66 66 66 67 67 68
31 31 36 43 43 44 44 49 52 53 52 54 56 55 54 56 56 56 56 57 58 59 60 62 63 66 67 67 66 67 67 68
36 32 30 40 46 47 48 45 51 54 53 53 53 49 53 55 55 55 56 56 56 57 58 59 60 64 67 67 67 66 67 67
36 33 38 45 45 48 37 39 51 53 53 50 50 53 54 54 54 54 54 54 56 56 56 57 60 62 61 63 63 64 68 68
36 33 30 46 46 40 45 50 54 54 54 53 54 53 53 53 53 53 53 53 54 55 55 56 59 60 59 59 61 63 63 63
37 38 44 47 48 49 51 54 54 53 53 53 52 51 51 52 51 51 52 52 53 52 53 54 56 58 58 58 59 58 58 58
40 42 45 48 51 53 55 54 54 53 51 51 50 51 51 51 51 50 51 51 51 51 50 50 52 54 56 58 58 57 56 56
40 43 46 47 50 54 54 53 52 52 51 50 50 50 51 51 50 50 50 49 49 49 49 49 49 50 53 54 56 56 54 53
40 44 43 45 52 55 53 52 52 51 50 50 49 48 48 48 50 50 50 49 47 47 47 47 47 48 49 50 52 55 54 52
42 47 46 48 54 55 53 52 52 51 50 49 49 49 48 47 48 51 49 49 48 47 46 48 47 47 49 49 45 43 43 42

GFSFLT2_sfc_dewp_123.txt.gz
Dewpoint
49 51 48 46 41 43 39 41 37 41 45 50 52 52 54 54 56 56 57 57 57 61 62 63 64 66 66 67 68 69 69 71
49 50 48 48 47 43 41 35 33 35 41 44 53 56 54 54 55 56 57 59 59 60 61 63 63 64 66 67 67 68 69 70
45 46 44 45 44 42 39 38 32 32 35 54 56 58 55 53 54 55 57 59 60 60 61 63 63 63 65 66 67 67 68 69
30 32 32 41 39 42 35 33 36 35 34 55 57 57 58 56 55 54 57 60 61 61 62 63 64 64 64 66 67 67 68 69
31 31 31 33 35 30 25 27 31 25 29 55 56 57 59 59 59 57 60 62 62 63 63 64 65 66 66 67 66 67 68 68
27 32 32 32 38 35 26 25 26 23 39 53 55 57 57 58 60 59 61 62 62 63 64 65 67 68 68 68 68 69 69 69
31 34 32 42 43 46 42 44 31 34 45 53 55 56 57 58 60 61 62 62 63 64 65 66 68 69 69 69 70 70 71 70
27 31 34 40 40 42 48 48 48 48 48 54 57 58 58 57 58 59 60 61 64 64 64 66 67 68 68 68 69 71 69 70
27 32 34 33 37 37 46 50 50 48 51 56 55 55 56 57 57 58 58 59 60 61 65 67 68 68 69 70 72 71 71 72
27 33 28 37 47 48 45 49 50 51 55 55 54 55 56 57 56 56 57 57 58 59 61 63 64 67 68 69 70 70 70 69
29 28 33 38 45 48 45 47 53 52 53 54 55 55 55 56 56 56 56 57 59 59 60 61 62 63 66 68 69 68 67 68
40 33 26 39 44 47 49 43 53 53 54 54 55 52 54 55 55 55 56 56 57 58 59 61 61 63 64 67 68 67 68 68
37 35 36 41 46 49 41 40 52 54 54 55 54 55 55 55 54 54 55 55 56 57 58 59 60 63 63 64 64 65 66 68
39 37 31 47 47 44 48 52 54 54 54 54 55 54 54 53 53 54 54 54 54 55 55 58 59 60 58 58 61 64 65 64
37 36 45 49 48 49 52 53 55 54 53 53 53 53 53 53 52 53 53 53 53 53 54 55 59 59 58 58 59 59 59 58
42 43 43 48 50 51 54 56 56 55 54 53 52 52 53 53 52 52 52 52 52 52 52 52 56 58 58 58 57 57 56 56
43 44 45 48 50 53 56 56 55 55 54 53 52 52 52 52 51 51 51 50 50 49 49 51 52 53 54 55 57 56 56 55
35 46 46 45 51 56 55 55 55 53 52 53 53 53 53 52 52 51 51 50 50 50 49 50 50 50 52 53 54 52 50 51
44 47 48 49 53 56 54 55 53 52 52 52 52 52 52 51 51 50 49 49 48 48 49 50 50 50 50 50 49 50 50 49